Location: Rodanthe
(35.5920°N, 75.4670°W)
Time: 17:12:09
(UTC-05:00)

ISS - All Passes

Search period start: 18 January 2017 00:00
Search period end: 28 January 2017 00:00
Orbit: 400 x 410 km, 51.6° (Epoch: 19 January)

Date Brightness Start Highest point End Pass type
(mag) Time Alt. Az. Time Alt. Az. Time Alt. Az.
18 Jan - 00:20:55 10° WNW 00:22:44 14° NNW 00:24:33 10° N night (unlit)
18 Jan - 05:13:15 10° NNW 05:15:59 24° NNE 05:18:42 10° E visible
18 Jan - 06:49:35 10° WNW 06:52:26 28° SW 06:55:17 10° SSE daylight
18 Jan - 21:50:54 10° SSW 21:53:52 33° SE 21:56:50 10° ENE night (unlit)
18 Jan - 23:27:46 10° W 23:30:23 22° NNW 23:33:01 10° NNE night (unlit)
19 Jan - 04:21:38 10° N 04:23:38 15° NNE 04:25:39 10° ENE visible
19 Jan - 05:57:11 10° NW 06:00:24 63° SW 06:03:36 10° SE visible
19 Jan - 20:59:48 10° SSE 21:01:53 16° SE 21:03:58 10° E night (unlit)
19 Jan - 22:35:03 10° WSW 22:38:07 39° NW 22:41:12 10° NE night (unlit)
20 Jan - 03:30:48 10° NNE 03:31:12 10° NNE 03:31:35 10° NNE night (unlit)
20 Jan - 05:05:03 10° NW 05:08:15 58° NE 05:11:28 10° ESE visible
20 Jan - 06:43:41 10° WSW 06:44:21 10° SW 06:44:58 10° SW visible
20 Jan - 21:42:40 10° SW 21:45:55 82° NW 21:49:10 10° NE night (unlit)
20 Jan - 23:21:28 10° NW 23:22:51 12° NNW 23:24:12 10° N night (unlit)
21 Jan - 04:13:06 10° NNW 04:16:01 29° NE 04:18:55 10° E visible
21 Jan - 05:49:48 10° WNW 05:52:22 22° SW 05:54:56 10° S visible
21 Jan - 20:50:41 10° SSW 20:53:47 44° SE 20:56:55 10° ENE night (unlit)
21 Jan - 22:28:02 10° WNW 22:30:25 18° NNW 22:32:48 10° NNE night (unlit)
22 Jan - 03:21:21 10° NNW 03:23:40 18° NNE 03:25:59 10° ENE night (unlit)
22 Jan - 04:57:12 10° WNW 05:00:19 46° SW 05:03:26 10° SSE visible
22 Jan - 19:59:13 10° S 20:01:44 21° SE 20:04:15 10° E night (unlit)
22 Jan - 21:35:07 10° W 21:38:04 31° NW 21:41:01 10° NNE night (unlit)
23 Jan - 02:29:58 10° N 02:31:14 12° NNE 02:32:29 10° NE night (unlit)
23 Jan - 04:04:56 10° NW 04:08:11 78° NE 04:11:24 10° SE visible
23 Jan - 20:42:35 10° WSW 20:45:48 62° NW 20:49:02 10° NE night (unlit)
23 Jan - 22:22:08 10° NW 22:22:50 10° NNW 22:23:33 10° N night (unlit)
24 Jan - 03:12:53 10° NNW 03:15:56 37° NE 03:18:58 10° ESE night (unlit)
24 Jan - 04:50:01 10° W 04:52:11 17° SW 04:54:20 10° S visible
24 Jan - 19:50:24 10° SW 19:53:37 59° SE 19:56:50 10° NE visible
24 Jan - 21:28:15 10° WNW 21:30:20 16° NNW 21:32:26 10° NNE night (unlit)
25 Jan - 02:21:01 10° NNW 02:23:35 21° NNE 02:26:09 10° E night (unlit)
25 Jan - 03:57:08 10° WNW 04:00:07 34° SW 04:03:06 10° SSE night (unlit)
25 Jan - 18:58:41 10° S 19:01:29 27° SE 19:04:18 10° ENE visible
25 Jan - 20:35:08 10° W 20:37:55 25° NW 20:40:43 10° NNE visible
26 Jan - 01:29:24 10° N 01:31:08 14° NNE 01:32:52 10° ENE night (unlit)
26 Jan - 03:04:43 10° NW 03:07:59 80° SW 03:11:12 10° SE night (unlit)
26 Jan - 18:07:49 10° SSE 18:09:26 13° SE 18:11:03 10° E visible
26 Jan - 19:42:26 10° WSW 19:45:35 47° NW 19:48:45 10° NE visible
27 Jan - 02:12:34 10° NW 02:15:43 47° NE 02:18:51 10° ESE night (unlit)
27 Jan - 03:50:19 10° W 03:51:52 13° SW 03:53:26 10° SSW night (unlit)
27 Jan - 18:50:04 10° SW 18:53:19 80° SE 18:56:36 10° NE visible
27 Jan - 20:28:24 10° WNW 20:30:10 14° NNW 20:31:54 10° N visible
